STARLINK-37127, 68236

Orbit data source: Space-Track

STARLINK-37127, 68236 is a payload satellite owned by SpaceX/Seattle (US) in LEO that was launched on Tue, 17 Mar 2026 UTC via an FALCON 9 launch vehicle from the Air Force Eastern Test Range (AFETR). Payload-class satellites include a variety of spacecraft equipped with specific instruments for various scientific and technological missions. These include communications satellites like Starlink; space stations such as the ISS; scientific satellites like the Hubble; Earth observation satellites from companies like Planet Labs, Umbra, and HawkEye 360; GPS; miniature CubeSats for education and research; and military/defense satellites.

Loading next visibility...
Identifier
68236, 2026-054E
Orbit
LEO
Country
Flag of USUS
Related business
Manufacturer
SpaceX/Seattle
Mission
Operational spacecraft
Bus & Motor
STARLINK V2MO, Unknown motor
Mass
575 kg wet, ~530 kg dry
Launch date (UTC)
2026-03-17 (2 months ago)
Launch vehicle
FALCON 9
Launch site
Air Force Eastern Test Range (AFETR)
Object type
Payload
Rocket body
Debris
Shape & HBR
Unknown shape, 17.7 m
Radar Cross Section
RCS unknown

Expand to show TLE details & history
Last TLE update: 7 hours ago

TLE from 7 hours ago
0 STARLINK-37127
1 68236U 26054E   26145.44273110  .00037433  00000-0  86456-3 0  9994
2 68236  53.1591 298.2303 0001323  88.6323 271.4835 15.42190916 10770
Epoch: 2026-05-25T10:37Z
TLE epoch observation values (Epoch: 2026-05-25T10:37:31.967Z)
Latitude
0.00004°
Longitude
-104.18332°
Altitude
440.526 km
Speed
7.649 km/s
True Right ascension
19h 52m 55s
True Declination
0° 00' 00"
Sunlit
Object was in full shadow at epoch
Visualization orbit readout
Latitude
Unknown
Longitude
Unknown
Altitude
Unknown
Speed
Unknown
Apparent Right ascension
Unknown
Apparent Declination
Unknown
Sunlit
N/A
Visualization observer readout
Local Sidereal Time
03:03:20
Azimuth
Unknown
Elevation
Unknown
Doppler factor
Unknown
Orbital elements
Apogee altitude
440.804 km
Perigee altitude
439 km
Semi-major axis
6,818.039 km
Eccentricity
0.00013
Inclination
53.1591°
RAAN
298.2303°
Arg. of periapsis
88.6323°
True anomaly
271.46834°
Mean anomaly
271.4835°
Eccentric anomaly
271.47592°
Mean motion
3.85526 °/min
Orbital period
93.38 mins
BSTAR
0.00086456
Loading maneuver chart data...
Computing Atmospheric mass density...
Loading historical data...
Loading historical data...
Loading historical data...
Loading historical data...
Loading historical data...
Loading historical data...
Loading historical data...

Documentation

Showing up to 5 results
|